• In Uzbekistan
  • List of Countries
  • For 7 days
  • Water Temperature
  • Satellite Maps
  • Weather Map
  • Weather Widgets
  • user-avatar
    Login

    Hourly Weather Viedma

    Today, 19 December, Wednesday

    Time Temperature Precipitation Wind Pressure Humidity
    00:00 +23°C° 0 mm 9 mps 754 mmHg 26%
    01:00 +23°C° 0 mm 9 mps 754 mmHg 27%
    02:00 +22°C° 0 mm 9 mps 753 mmHg 30%
    03:00 +22°C° 0 mm 8 mps 753 mmHg 34%
    04:00 +22°C° 0 mm 8 mps 753 mmHg 38%
    05:00 +21°C° 0 mm 8 mps 753 mmHg 42%
    06:00 +23°C° 0 mm 8 mps 753 mmHg 40%
    07:00 +24°C° 0 mm 8 mps 753 mmHg 39%
    08:00 +27°C° 0 mm 8 mps 752 mmHg 37%
    09:00 +29°C° 0 mm 8 mps 752 mmHg 34%
    10:00 +30°C° 0 mm 7 mps 752 mmHg 31%
    11:00 +33°C° 0 mm 6 mps 752 mmHg 28%
    12:00 +34°C° 0 mm 6 mps 751 mmHg 27%
    13:00 +34°C° 0 mm 5 mps 751 mmHg 26%
    14:00 +35°C° 0 mm 4 mps 750 mmHg 24%
    15:00 +34°C° 0 mm 5 mps 750 mmHg 26%
    16:00 +32°C° 0 mm 6 mps 750 mmHg 28%
    17:00 +30°C° 0 mm 6 mps 750 mmHg 30%
    18:00 +29°C° 0.4 mm 7 mps 750 mmHg 36%
    19:00 +27°C° 0.4 mm 7 mps 750 mmHg 41%
    20:00 +24°C° 0.4 mm 7 mps 751 mmHg 46%
    21:00 +23°C° 0.3 mm 6 mps 751 mmHg 50%
    22:00 +23°C° 0.3 mm 5 mps 752 mmHg 53%
    23:00 +22°C° 0.3 mm 5 mps 752 mmHg 57%

    Tomorrow, 20 December, Thursday

    Time Temperature Precipitation Wind Pressure Humidity
    00:00 +22°C° 0.2 mm 5 mps 752 mmHg 60%
    01:00 +21°C° 0.2 mm 5 mps 752 mmHg 64%
    02:00 +21°C° 0.2 mm 5 mps 752 mmHg 67%
    03:00 +20°C° 0.2 mm 6 mps 753 mmHg 71%
    04:00 +20°C° 0.2 mm 6 mps 753 mmHg 74%
    05:00 +18°C° 0.2 mm 7 mps 753 mmHg 78%
    06:00 +20°C° 0.2 mm 7 mps 754 mmHg 72%
    07:00 +21°C° 0.2 mm 8 mps 754 mmHg 67%
    08:00 +22°C° 0.2 mm 8 mps 754 mmHg 61%
    09:00 +23°C° 0.1 mm 7 mps 755 mmHg 57%
    10:00 +24°C° 0.1 mm 7 mps 755 mmHg 52%
    11:00 +26°C° 0.1 mm 6 mps 755 mmHg 48%
    12:00 +27°C° 0 mm 7 mps 755 mmHg 48%
    13:00 +27°C° 0 mm 7 mps 755 mmHg 47%
    14:00 +27°C° 0 mm 7 mps 755 mmHg 47%
    15:00 +26°C° 0 mm 7 mps 755 mmHg 50%
    16:00 +24°C° 0 mm 7 mps 755 mmHg 53%
    17:00 +23°C° 0 mm 6 mps 755 mmHg 56%
    18:00 +22°C° 0 mm 6 mps 755 mmHg 62%
    19:00 +21°C° 0 mm 6 mps 755 mmHg 68%
    20:00 +19°C° 0 mm 5 mps 756 mmHg 74%
    21:00 +19°C° 0 mm 4 mps 756 mmHg 77%
    22:00 +18°C° 0 mm 4 mps 756 mmHg 80%
    23:00 +18°C° 0 mm 3 mps 756 mmHg 82%

    Day after tomorrow, 21 December, Friday

    Time Temperature Precipitation Wind Pressure Humidity
    00:00 +18°C° 0 mm 2 mps 756 mmHg 84%
    01:00 +17°C° 0 mm 2 mps 756 mmHg 85%
    02:00 +18°C° 0 mm 1 mps 755 mmHg 87%
    03:00 +18°C° 0 mm 1 mps 755 mmHg 87%
    04:00 +18°C° 0 mm 1 mps 755 mmHg 88%
    05:00 +18°C° 0 mm 1 mps 754 mmHg 88%
    06:00 +19°C° 0 mm 1 mps 755 mmHg 78%
    07:00 +21°C° 0 mm 1 mps 755 mmHg 67%
    08:00 +23°C° 0 mm 1 mps 755 mmHg 57%
    09:00 +25°C° 0 mm 1 mps 755 mmHg 50%
    10:00 +27°C° 0 mm 2 mps 755 mmHg 42%
    11:00 +29°C° 0 mm 2 mps 754 mmHg 35%
    12:00 +29°C° 0 mm 3 mps 754 mmHg 34%
    13:00 +30°C° 0 mm 3 mps 754 mmHg 34%
    14:00 +30°C° 0 mm 4 mps 753 mmHg 34%
    15:00 +30°C° 0 mm 4 mps 753 mmHg 35%
    16:00 +29°C° 0 mm 5 mps 753 mmHg 37%
    17:00 +29°C° 0 mm 5 mps 753 mmHg 39%
    18:00 +27°C° 0 mm 5 mps 753 mmHg 45%
    19:00 +26°C° 0 mm 5 mps 753 mmHg 51%
    20:00 +23°C° 0 mm 4 mps 753 mmHg 58%
    21:00 +23°C° 0 mm 4 mps 753 mmHg 62%
    22:00 +22°C° 0 mm 4 mps 754 mmHg 66%
    23:00 +22°C° 0 mm 4 mps 754 mmHg 69%

    22 December, Saturday

    Time Temperature Precipitation Wind Pressure Humidity
    00:00 +22°C° 0 mm 4 mps 754 mmHg 69%
    01:00 +22°C° 0 mm 4 mps 753 mmHg 69%
    02:00 +22°C° 0 mm 3 mps 753 mmHg 69%
    03:00 +22°C° 0 mm 3 mps 753 mmHg 68%
    04:00 +22°C° 0 mm 3 mps 753 mmHg 67%
    05:00 +21°C° 0 mm 3 mps 753 mmHg 66%
    06:00 +24°C° 0 mm 3 mps 753 mmHg 60%
    07:00 +26°C° 0 mm 3 mps 753 mmHg 53%
    08:00 +27°C° 0 mm 3 mps 754 mmHg 47%
    09:00 +29°C° 0 mm 3 mps 753 mmHg 41%
    10:00 +32°C° 0 mm 4 mps 753 mmHg 35%
    11:00 +34°C° 0 mm 5 mps 753 mmHg 30%
    12:00 +34°C° 0 mm 5 mps 752 mmHg 29%
    13:00 +34°C° 0 mm 5 mps 752 mmHg 28%
    14:00 +35°C° 0 mm 6 mps 751 mmHg 27%
    15:00 +33°C° 0 mm 7 mps 751 mmHg 30%
    16:00 +32°C° 0 mm 8 mps 751 mmHg 33%
    17:00 +31°C° 0 mm 10 mps 750 mmHg 37%
    18:00 +29°C° 0 mm 9 mps 751 mmHg 38%
    19:00 +28°C° 0 mm 9 mps 751 mmHg 40%
    20:00 +27°C° 0 mm 8 mps 751 mmHg 41%
    21:00 +26°C° 0 mm 7 mps 751 mmHg 43%
    22:00 +26°C° 0 mm 6 mps 751 mmHg 44%
    23:00 +26°C° 0 mm 5 mps 752 mmHg 46%

    23 December, Sunday

    Time Temperature Precipitation Wind Pressure Humidity
    00:00 +25°C° 0 mm 4 mps 752 mmHg 47%
    01:00 +25°C° 0 mm 4 mps 751 mmHg 48%
    02:00 +24°C° 0 mm 3 mps 751 mmHg 49%
    03:00 +24°C° 0 mm 2 mps 751 mmHg 50%
    04:00 +24°C° 0 mm 2 mps 752 mmHg 50%
    05:00 +23°C° 0 mm 2 mps 752 mmHg 51%
    06:00 +25°C° 0 mm 4 mps 752 mmHg 46%
    07:00 +26°C° 0 mm 5 mps 753 mmHg 41%
    08:00 +28°C° 0 mm 6 mps 753 mmHg 37%
    09:00 +28°C° 0 mm 7 mps 754 mmHg 34%
    10:00 +29°C° 0 mm 7 mps 754 mmHg 32%
    11:00 +31°C° 0 mm 8 mps 754 mmHg 30%
    12:00 +31°C° 0 mm 8 mps 754 mmHg 28%
    13:00 +30°C° 0 mm 7 mps 754 mmHg 26%
    14:00 +30°C° 0 mm 7 mps 754 mmHg 25%
    15:00 +29°C° 0 mm 7 mps 754 mmHg 26%
    16:00 +29°C° 0 mm 6 mps 754 mmHg 27%
    17:00 +28°C° 0 mm 6 mps 754 mmHg 27%
    18:00 +27°C° 0 mm 6 mps 754 mmHg 31%
    19:00 +25°C° 0 mm 5 mps 754 mmHg 34%
    20:00 +23°C° 0 mm 5 mps 754 mmHg 37%
    21:00 +22°C° 0 mm 5 mps 755 mmHg 38%
    22:00 +22°C° 0 mm 5 mps 755 mmHg 40%
    23:00 +21°C° 0 mm 5 mps 755 mmHg 41%

    24 December, Monday

    Time Temperature Precipitation Wind Pressure Humidity
    00:00 +21°C° 0 mm 6 mps 754 mmHg 45%
    01:00 +21°C° 0 mm 6 mps 754 mmHg 48%
    02:00 +21°C° 0 mm 6 mps 753 mmHg 51%
    03:00 +20°C° 0 mm 6 mps 753 mmHg 56%
    04:00 +20°C° 0 mm 6 mps 753 mmHg 62%
    05:00 +20°C° 0 mm 5 mps 752 mmHg 67%
    06:00 +23°C° 0 mm 5 mps 752 mmHg 60%
    07:00 +27°C° 0 mm 5 mps 752 mmHg 54%
    08:00 +30°C° 0 mm 6 mps 752 mmHg 47%
    09:00 +33°C° 0 mm 6 mps 751 mmHg 38%
    10:00 +36°C° 0 mm 5 mps 750 mmHg 30%
    11:00 +40°C° 0 mm 5 mps 750 mmHg 21%
    12:00 +40°C° 0.1 mm 5 mps 749 mmHg 21%
    13:00 +40°C° 0.1 mm 5 mps 748 mmHg 21%
    14:00 +41°C° 0.1 mm 4 mps 747 mmHg 21%
    15:00 +37°C° 3.1 mm 5 mps 746 mmHg 32%
    16:00 +34°C° 3.1 mm 6 mps 746 mmHg 42%
    17:00 +30°C° 3.1 mm 7 mps 745 mmHg 53%
    18:00 +29°C° 0.1 mm 7 mps 745 mmHg 54%
    19:00 +29°C° 0.1 mm 7 mps 744 mmHg 56%
    20:00 +28°C° 0.1 mm 7 mps 744 mmHg 57%
    21:00 +29°C° 0 mm 7 mps 745 mmHg 51%
    22:00 +30°C° 0 mm 7 mps 745 mmHg 45%
    23:00 +30°C° 0 mm 7 mps 745 mmHg 39%
    Show more